Location: *
(44.9308°N, 123.0197°W)
Time: 22:10:49
(UTC+00:00)

H-2A R/B - Pass Details

Date: 09 April 2020
Orbit: 529 x 653 km, 98.3° (Epoch: 02 June)

Event Time Altitude Azimuth Distance (km) Brightness Sun altitude
Rises 12:37:39 0° 21° (NNE) 2,795 6.6 -10.9°
Reaches altitude 10° 12:39:59 10° 31° (NNE) 1,871 5.9 -10.5°
Maximum altitude 12:43:41 34° 98° (E) 916 4.1 -9.9°
Drops below altitude 10° 12:47:16 10° 164° (SSE) 1,802 4.9 -9.3°
Sets 12:49:28 0° 174° (S) 2,676 5.7 -8.9°
